Time,TemperatureF,DewpointF,PressureIn,WindDirection,WindDirectionDegrees,WindSpeedMPH,WindSpeedGustMPH,Humidity,HourlyPrecipIn,Conditions,Clouds,dailyrainin,SolarRadiationWatts/m^2,SoftwareType,DateUTC
2013-06-29 00:06:00,72.7,38.5,29.53,North,-999,-999.0,-999.0,5,0.00,,,-99.99,0.0,Linux-Irox,2013-06-29 07:06:00,
2013-06-29 00:16:00,72.1,37.9,29.53,North,-999,-999.0,-999.0,5,0.00,,,-99.99,0.0,Linux-Irox,2013-06-29 07:16:00,
2013-06-29 00:26:00,72.7,38.5,29.53,North,-999,-999.0,-999.0,5,0.00,,,-99.99,0.0,Linux-Irox,2013-06-29 07:26:00,
2013-06-29 00:36:00,72.5,38.3,29.53,North,-999,-999.0,-999.0,5,0.00,,,-99.99,0.0,Linux-Irox,2013-06-29 07:36:00,
2013-06-29 00:46:00,72.3,38.1,29.53,North,-999,-999.0,-999.0,5,0.00,,,-99.99,0.0,Linux-Irox,2013-06-29 07:46:00,
2013-06-29 00:56:00,72.1,37.9,29.53,North,-999,-999.0,-999.0,5,0.00,,,-99.99,0.0,Linux-Irox,2013-06-29 07:56:00,
2013-06-29 01:06:00,72.0,37.8,29.53,North,-999,-999.0,-999.0,5,0.00,,,-99.99,0.0,Linux-Irox,2013-06-29 08:06:00,
2013-06-29 01:16:00,71.8,37.6,29.53,North,-999,-999.0,-999.0,5,0.00,,,-99.99,0.0,Linux-Irox,2013-06-29 08:16:00,
2013-06-29 01:26:00,71.2,37.0,29.53,North,-999,-999.0,-999.0,5,0.00,,,-99.99,0.0,Linux-Irox,2013-06-29 08:26:00,
2013-06-29 01:36:00,70.7,36.5,29.53,North,-999,-999.0,-999.0,5,0.00,,,-99.99,0.0,Linux-Irox,2013-06-29 08:36:00,
2013-06-29 01:46:00,70.5,36.3,29.53,North,-999,-999.0,-999.0,5,0.00,,,-99.99,0.0,Linux-Irox,2013-06-29 08:46:00,
2013-06-29 01:56:00,70.3,36.1,29.53,North,-999,-999.0,-999.0,5,0.00,,,-99.99,0.0,Linux-Irox,2013-06-29 08:56:00,
2013-06-29 02:06:00,70.2,36.0,29.52,North,-999,-999.0,-999.0,5,0.00,,,-99.99,0.0,Linux-Irox,2013-06-29 09:06:00,
2013-06-29 02:16:00,70.2,36.0,29.52,North,-999,-999.0,-999.0,5,0.00,,,-99.99,0.0,Linux-Irox,2013-06-29 09:16:00,
2013-06-29 02:26:00,70.3,36.1,29.52,North,-999,-999.0,-999.0,5,0.00,,,-99.99,0.0,Linux-Irox,2013-06-29 09:26:00,
2013-06-29 02:36:00,70.2,36.0,29.52,North,-999,-999.0,-999.0,5,0.00,,,-99.99,0.0,Linux-Irox,2013-06-29 09:36:00,
2013-06-29 02:46:00,70.2,36.0,29.52,North,-999,-999.0,-999.0,5,0.00,,,-99.99,0.0,Linux-Irox,2013-06-29 09:46:00,
2013-06-29 02:56:00,70.3,36.1,29.52,North,-999,-999.0,-999.0,5,0.00,,,-99.99,0.0,Linux-Irox,2013-06-29 09:56:00,
2013-06-29 03:06:00,70.9,36.7,29.52,North,-999,-999.0,-999.0,5,0.00,,,-99.99,0.0,Linux-Irox,2013-06-29 10:06:00,
2013-06-29 03:16:00,70.5,36.3,29.52,North,-999,-999.0,-999.0,5,0.00,,,-99.99,0.0,Linux-Irox,2013-06-29 10:16:00,
2013-06-29 03:26:00,70.0,35.8,29.52,North,-999,-999.0,-999.0,5,0.00,,,-99.99,0.0,Linux-Irox,2013-06-29 10:26:00,
2013-06-29 03:36:00,69.4,35.2,29.52,North,-999,-999.0,-999.0,5,0.00,,,-99.99,0.0,Linux-Irox,2013-06-29 10:36:00,
2013-06-29 03:46:00,69.8,35.6,29.52,North,-999,-999.0,-999.0,5,0.00,,,-99.99,0.0,Linux-Irox,2013-06-29 10:46:00,
2013-06-29 03:56:00,69.4,35.2,29.52,North,-999,-999.0,-999.0,5,0.00,,,-99.99,0.0,Linux-Irox,2013-06-29 10:56:00,
2013-06-29 04:06:00,69.4,35.2,29.52,North,-999,-999.0,-999.0,5,0.00,,,-99.99,0.0,Linux-Irox,2013-06-29 11:06:00,
2013-06-29 04:16:00,70.2,36.0,29.52,North,-999,-999.0,-999.0,5,0.00,,,-99.99,0.0,Linux-Irox,2013-06-29 11:16:00,
2013-06-29 04:26:00,70.9,36.7,29.51,North,-999,-999.0,-999.0,5,0.00,,,-99.99,0.0,Linux-Irox,2013-06-29 11:26:00,
2013-06-29 04:36:00,70.3,36.1,29.51,North,-999,-999.0,-999.0,5,0.00,,,-99.99,0.0,Linux-Irox,2013-06-29 11:36:00,
2013-06-29 04:46:00,70.3,36.1,29.51,North,-999,-999.0,-999.0,5,0.00,,,-99.99,0.0,Linux-Irox,2013-06-29 11:46:00,
2013-06-29 04:56:00,70.7,36.5,29.51,North,-999,-999.0,-999.0,5,0.00,,,-99.99,0.0,Linux-Irox,2013-06-29 11:56:00,
2013-06-29 05:06:00,70.0,35.8,29.52,North,-999,-999.0,-999.0,5,0.00,,,-99.99,0.0,Linux-Irox,2013-06-29 12:06:00,
2013-06-29 05:16:00,69.1,34.9,29.52,North,-999,-999.0,-999.0,5,0.00,,,-99.99,0.0,Linux-Irox,2013-06-29 12:16:00,
2013-06-29 05:26:00,68.7,34.5,29.52,North,-999,-999.0,-999.0,5,0.00,,,-99.99,0.0,Linux-Irox,2013-06-29 12:26:00,
2013-06-29 05:36:00,69.1,34.9,29.52,North,-999,-999.0,-999.0,5,0.00,,,-99.99,0.0,Linux-Irox,2013-06-29 12:36:00,
2013-06-29 05:46:00,68.9,34.7,29.52,North,-999,-999.0,-999.0,5,0.00,,,-99.99,0.0,Linux-Irox,2013-06-29 12:46:00,
2013-06-29 05:56:00,68.7,34.5,29.52,North,-999,-999.0,-999.0,5,0.00,,,-99.99,0.0,Linux-Irox,2013-06-29 12:56:00,
2013-06-29 06:06:00,69.1,34.9,29.51,North,-999,-999.0,-999.0,5,0.00,,,-99.99,0.0,Linux-Irox,2013-06-29 13:06:00,
2013-06-29 06:16:00,68.9,34.7,29.51,North,-999,-999.0,-999.0,5,0.00,,,-99.99,0.0,Linux-Irox,2013-06-29 13:16:00,
2013-06-29 06:26:00,69.3,35.1,29.51,North,-999,-999.0,-999.0,5,0.00,,,-99.99,0.0,Linux-Irox,2013-06-29 13:26:00,
2013-06-29 06:36:00,69.3,35.1,29.51,North,-999,-999.0,-999.0,5,0.00,,,-99.99,0.0,Linux-Irox,2013-06-29 13:36:00,
2013-06-29 06:46:00,74.5,40.3,29.53,North,-999,-999.0,-999.0,5,0.00,,,-99.99,0.0,Linux-Irox,2013-06-29 13:46:00,
2013-06-29 06:56:00,78.4,44.2,29.53,North,-999,-999.0,-999.0,5,0.00,,,-99.99,0.0,Linux-Irox,2013-06-29 13:56:00,
2013-06-29 07:06:00,82.9,48.7,29.53,North,-999,-999.0,-999.0,5,0.00,,,-99.99,0.0,Linux-Irox,2013-06-29 14:06:00,
2013-06-29 07:16:00,85.8,51.6,29.53,North,-999,-999.0,-999.0,5,0.00,,,-99.99,0.0,Linux-Irox,2013-06-29 14:16:00,
2013-06-29 07:26:00,86.2,52.0,29.54,North,-999,-999.0,-999.0,5,0.03,,,-99.99,0.0,Linux-Irox,2013-06-29 14:26:00,
2013-06-29 07:36:00,88.5,54.3,29.54,North,-999,-999.0,-999.0,5,0.03,,,-99.99,0.0,Linux-Irox,2013-06-29 14:36:00,
2013-06-29 07:46:00,88.2,54.0,29.53,North,-999,-999.0,-999.0,5,0.03,,,-99.99,0.0,Linux-Irox,2013-06-29 14:46:00,
2013-06-29 07:56:00,87.3,53.1,29.53,North,-999,-999.0,-999.0,5,0.03,,,-99.99,0.0,Linux-Irox,2013-06-29 14:56:00,
2013-06-29 08:06:00,88.0,53.8,29.52,North,-999,-999.0,-999.0,5,0.03,,,-99.99,0.0,Linux-Irox,2013-06-29 15:06:00,
2013-06-29 08:16:00,88.0,53.8,29.52,North,-999,-999.0,-999.0,5,0.03,,,-99.99,0.0,Linux-Irox,2013-06-29 15:16:00,
2013-06-29 08:26:00,89.4,55.2,29.51,North,-999,-999.0,-999.0,5,0.03,,,-99.99,0.0,Linux-Irox,2013-06-29 15:26:00,
2013-06-29 08:36:00,90.1,55.9,29.51,North,-999,-999.0,-999.0,5,0.00,,,-99.99,0.0,Linux-Irox,2013-06-29 15:36:00,
2013-06-29 08:46:00,91.4,57.2,29.51,North,-999,-999.0,-999.0,5,0.00,,,-99.99,0.0,Linux-Irox,2013-06-29 15:46:00,
2013-06-29 08:56:00,91.8,57.6,29.51,North,-999,-999.0,-999.0,5,0.00,,,-99.99,0.0,Linux-Irox,2013-06-29 15:56:00,
2013-06-29 09:06:00,92.5,58.3,29.51,North,-999,-999.0,-999.0,5,0.00,,,-99.99,0.0,Linux-Irox,2013-06-29 16:06:00,
2013-06-29 09:16:00,91.8,57.6,29.51,North,-999,-999.0,-999.0,5,0.00,,,-99.99,0.0,Linux-Irox,2013-06-29 16:16:00,
2013-06-29 09:26:00,91.8,57.6,29.50,North,-999,-999.0,-999.0,5,0.00,,,-99.99,0.0,Linux-Irox,2013-06-29 16:26:00,
2013-06-29 09:36:00,93.0,58.8,29.50,North,-999,-999.0,-999.0,5,0.00,,,-99.99,0.0,Linux-Irox,2013-06-29 16:36:00,
2013-06-29 09:46:00,94.1,59.9,29.50,North,-999,-999.0,-999.0,5,0.00,,,-99.99,0.0,Linux-Irox,2013-06-29 16:46:00,
2013-06-29 09:56:00,93.4,59.2,29.50,North,-999,-999.0,-999.0,5,0.00,,,-99.99,0.0,Linux-Irox,2013-06-29 16:56:00,
2013-06-29 10:06:00,92.8,58.6,29.49,North,-999,-999.0,-999.0,5,0.00,,,-99.99,0.0,Linux-Irox,2013-06-29 17:06:00,
2013-06-29 10:16:00,93.0,58.8,29.49,North,-999,-999.0,-999.0,5,0.00,,,-99.99,0.0,Linux-Irox,2013-06-29 17:16:00,
2013-06-29 10:26:00,93.2,59.0,29.49,North,-999,-999.0,-999.0,5,0.00,,,-99.99,0.0,Linux-Irox,2013-06-29 17:26:00,
2013-06-29 10:36:00,93.9,59.7,29.49,North,-999,-999.0,-999.0,5,0.00,,,-99.99,0.0,Linux-Irox,2013-06-29 17:36:00,
2013-06-29 10:46:00,94.3,60.1,29.49,North,-999,-999.0,-999.0,5,0.00,,,-99.99,0.0,Linux-Irox,2013-06-29 17:46:00,
2013-06-29 10:56:00,93.9,59.7,29.49,North,-999,-999.0,-999.0,5,0.00,,,-99.99,0.0,Linux-Irox,2013-06-29 17:56:00,
2013-06-29 11:06:00,94.5,60.3,29.49,North,-999,-999.0,-999.0,5,0.00,,,-99.99,0.0,Linux-Irox,2013-06-29 18:06:00,
2013-06-29 11:16:00,94.5,60.3,29.49,North,-999,-999.0,-999.0,5,0.00,,,-99.99,0.0,Linux-Irox,2013-06-29 18:16:00,
2013-06-29 11:26:00,93.6,59.4,29.49,North,-999,-999.0,-999.0,5,0.00,,,-99.99,0.0,Linux-Irox,2013-06-29 18:26:00,
2013-06-29 11:36:00,95.5,61.3,29.49,North,-999,-999.0,-999.0,5,0.00,,,-99.99,0.0,Linux-Irox,2013-06-29 18:36:00,
2013-06-29 11:46:00,94.5,60.3,29.48,North,-999,-999.0,-999.0,5,0.00,,,-99.99,0.0,Linux-Irox,2013-06-29 18:46:00,
2013-06-29 11:56:00,95.5,61.3,29.48,North,-999,-999.0,-999.0,5,0.00,,,-99.99,0.0,Linux-Irox,2013-06-29 18:56:00,
2013-06-29 12:06:00,96.3,62.1,29.48,North,-999,-999.0,-999.0,5,0.00,,,-99.99,0.0,Linux-Irox,2013-06-29 19:06:00,
2013-06-29 12:16:00,95.7,61.5,29.48,North,-999,-999.0,-999.0,5,0.00,,,-99.99,0.0,Linux-Irox,2013-06-29 19:16:00,
2013-06-29 12:26:00,95.9,61.7,0.00,North,-999,-999.0,-999.0,5,-32.48,,,-99.99,0.0,Linux-Irox,2013-06-29 19:26:00,
2013-06-29 12:36:00,96.3,62.1,29.47,North,-999,-999.0,-999.0,5,0.00,,,-99.99,0.0,Linux-Irox,2013-06-29 19:36:00,
2013-06-29 12:46:00,96.1,61.9,29.47,North,-999,-999.0,-999.0,5,0.00,,,-99.99,0.0,Linux-Irox,2013-06-29 19:46:00,
2013-06-29 12:56:00,95.9,61.7,29.47,North,-999,-999.0,-999.0,5,0.00,,,-99.99,0.0,Linux-Irox,2013-06-29 19:56:00,
2013-06-29 13:06:00,96.3,62.1,29.46,North,-999,-999.0,-999.0,5,0.00,,,-99.99,0.0,Linux-Irox,2013-06-29 20:06:00,
2013-06-29 13:16:00,96.1,61.9,29.46,North,-999,-999.0,-999.0,5,0.00,,,-99.99,0.0,Linux-Irox,2013-06-29 20:16:00,
2013-06-29 13:26:00,96.1,61.9,29.46,North,-999,-999.0,-999.0,5,0.00,,,-99.99,0.0,Linux-Irox,2013-06-29 20:26:00,
2013-06-29 13:36:00,95.9,61.7,29.46,North,-999,-999.0,-999.0,5,0.00,,,-99.99,0.0,Linux-Irox,2013-06-29 20:36:00,
2013-06-29 13:46:00,97.2,63.0,29.46,North,-999,-999.0,-999.0,5,0.00,,,-99.99,0.0,Linux-Irox,2013-06-29 20:46:00,
2013-06-29 13:56:00,97.7,63.5,29.46,North,-999,-999.0,-999.0,5,0.00,,,-99.99,0.0,Linux-Irox,2013-06-29 20:56:00,
2013-06-29 14:06:00,97.2,63.0,29.45,North,-999,-999.0,-999.0,5,0.00,,,-99.99,0.0,Linux-Irox,2013-06-29 21:06:00,
2013-06-29 14:16:00,97.0,62.8,29.45,North,-999,-999.0,-999.0,5,0.00,,,-99.99,0.0,Linux-Irox,2013-06-29 21:16:00,
2013-06-29 14:26:00,97.2,63.0,29.44,North,-999,-999.0,-999.0,5,0.00,,,-99.99,0.0,Linux-Irox,2013-06-29 21:26:00,
2013-06-29 14:36:00,97.5,63.3,29.44,North,-999,-999.0,-999.0,5,0.00,,,-99.99,0.0,Linux-Irox,2013-06-29 21:36:00,
2013-06-29 14:46:00,98.1,63.9,29.43,North,-999,-999.0,-999.0,5,0.00,,,-99.99,0.0,Linux-Irox,2013-06-29 21:46:00,
2013-06-29 14:56:00,97.9,63.7,29.43,North,-999,-999.0,-999.0,5,0.00,,,-99.99,0.0,Linux-Irox,2013-06-29 21:56:00,
2013-06-29 15:06:00,98.6,64.4,29.43,North,-999,-999.0,-999.0,5,0.00,,,-99.99,0.0,Linux-Irox,2013-06-29 22:06:00,
2013-06-29 15:16:00,99.0,64.8,29.43,North,-999,-999.0,-999.0,5,0.00,,,-99.99,0.0,Linux-Irox,2013-06-29 22:16:00,
2013-06-29 15:26:00,98.8,64.6,29.42,North,-999,-999.0,-999.0,5,0.00,,,-99.99,0.0,Linux-Irox,2013-06-29 22:26:00,
2013-06-29 15:36:00,99.9,65.7,29.42,North,-999,-999.0,-999.0,5,0.00,,,-99.99,0.0,Linux-Irox,2013-06-29 22:36:00,
2013-06-29 15:46:00,99.1,64.9,29.42,North,-999,-999.0,-999.0,5,0.00,,,-99.99,0.0,Linux-Irox,2013-06-29 22:46:00,
2013-06-29 15:56:00,98.8,64.6,29.42,North,-999,-999.0,-999.0,5,0.00,,,-99.99,0.0,Linux-Irox,2013-06-29 22:56:00,
2013-06-29 16:06:00,98.2,64.0,29.40,North,-999,-999.0,-999.0,5,0.00,,,-99.99,0.0,Linux-Irox,2013-06-29 23:06:00,
2013-06-29 16:16:00,97.7,63.5,29.40,North,-999,-999.0,-999.0,5,0.00,,,-99.99,0.0,Linux-Irox,2013-06-29 23:16:00,
2013-06-29 16:26:00,98.1,63.9,29.40,North,-999,-999.0,-999.0,5,0.00,,,-99.99,0.0,Linux-Irox,2013-06-29 23:26:00,
2013-06-29 16:36:00,97.7,63.5,29.40,North,-999,-999.0,-999.0,5,0.00,,,-99.99,0.0,Linux-Irox,2013-06-29 23:36:00,
2013-06-29 16:46:00,97.0,62.8,29.39,North,-999,-999.0,-999.0,5,0.00,,,-99.99,0.0,Linux-Irox,2013-06-29 23:46:00,
2013-06-29 16:56:00,97.0,62.8,29.39,North,-999,-999.0,-999.0,5,0.00,,,-99.99,0.0,Linux-Irox,2013-06-29 23:56:00,
2013-06-29 17:06:00,96.4,62.2,29.38,North,-999,-999.0,-999.0,5,0.00,,,-99.99,0.0,Linux-Irox,2013-06-30 00:06:00,
2013-06-29 17:16:00,96.3,62.1,29.38,North,-999,-999.0,-999.0,5,0.00,,,-99.99,0.0,Linux-Irox,2013-06-30 00:16:00,
2013-06-29 17:17:00,96.3,62.1,29.38,North,-999,-999.0,-999.0,5,0.00,,,-99.99,0.0,Linux-Irox,2013-06-30 00:17:00,
2013-06-29 17:26:00,95.7,61.5,29.37,North,-999,-999.0,-999.0,5,0.00,,,-99.99,0.0,Linux-Irox,2013-06-30 00:26:00,
2013-06-29 17:31:00,95.4,61.2,29.37,North,-999,-999.0,-999.0,5,0.03,,,-99.99,0.0,Linux-Irox,2013-06-30 00:31:00,
2013-06-29 17:36:00,95.5,61.3,29.37,North,-999,-999.0,-999.0,5,0.00,,,-99.99,0.0,Linux-Irox,2013-06-30 00:36:00,
2013-06-29 17:46:00,94.6,60.4,29.38,North,-999,-999.0,-999.0,5,0.00,,,-99.99,0.0,Linux-Irox,2013-06-30 00:46:00,
2013-06-29 17:47:00,94.6,60.4,29.38,North,-999,-999.0,-999.0,5,0.00,,,-99.99,0.0,Linux-Irox,2013-06-30 00:47:00,
2013-06-29 17:56:00,94.3,60.1,29.38,North,-999,-999.0,-999.0,5,0.00,,,-99.99,0.0,Linux-Irox,2013-06-30 00:56:00,
2013-06-29 18:02:00,93.7,59.5,29.33,North,-999,-999.0,-999.0,5,0.00,,,-99.99,0.0,Linux-Irox,2013-06-30 01:02:00,
2013-06-29 18:06:00,93.4,59.2,29.33,North,-999,-999.0,-999.0,5,0.00,,,-99.99,0.0,Linux-Irox,2013-06-30 01:06:00,
2013-06-29 18:16:00,92.7,58.5,29.33,North,-999,-999.0,-999.0,5,0.00,,,-99.99,0.0,Linux-Irox,2013-06-30 01:16:00,
2013-06-29 18:17:00,92.7,58.5,29.33,North,-999,-999.0,-999.0,5,0.00,,,-99.99,0.0,Linux-Irox,2013-06-30 01:17:00,
2013-06-29 18:26:00,92.8,58.6,29.31,North,-999,-999.0,-999.0,5,0.00,,,-99.99,0.0,Linux-Irox,2013-06-30 01:26:00,
2013-06-29 18:32:00,92.7,58.5,29.31,North,-999,-999.0,-999.0,5,0.00,,,-99.99,0.0,Linux-Irox,2013-06-30 01:32:00,
2013-06-29 18:36:00,92.7,58.5,29.31,North,-999,-999.0,-999.0,5,0.00,,,-99.99,0.0,Linux-Irox,2013-06-30 01:36:00,
2013-06-29 18:46:00,93.9,59.7,29.30,North,-999,-999.0,-999.0,5,0.00,,,-99.99,0.0,Linux-Irox,2013-06-30 01:46:00,
2013-06-29 18:47:00,93.9,59.7,29.30,North,-999,-999.0,-999.0,5,0.00,,,-99.99,0.0,Linux-Irox,2013-06-30 01:47:00,
2013-06-29 18:56:00,92.5,58.3,29.30,North,-999,-999.0,-999.0,5,0.00,,,-99.99,0.0,Linux-Irox,2013-06-30 01:56:00,
2013-06-29 19:02:00,91.9,57.7,29.36,North,-999,-999.0,-999.0,5,0.00,,,-99.99,0.0,Linux-Irox,2013-06-30 02:02:00,
2013-06-29 19:06:00,92.1,57.9,29.36,North,-999,-999.0,-999.0,5,0.00,,,-99.99,0.0,Linux-Irox,2013-06-30 02:06:00,
2013-06-29 19:16:00,89.8,55.6,29.36,North,-999,-999.0,-999.0,5,0.00,,,-99.99,0.0,Linux-Irox,2013-06-30 02:16:00,
2013-06-29 19:17:00,89.8,55.6,29.36,North,-999,-999.0,-999.0,5,0.00,,,-99.99,0.0,Linux-Irox,2013-06-30 02:17:00,
2013-06-29 19:26:00,88.2,54.0,29.37,North,-999,-999.0,-999.0,5,0.00,,,-99.99,0.0,Linux-Irox,2013-06-30 02:26:00,
2013-06-29 19:31:00,87.6,53.4,29.37,North,-999,-999.0,-999.0,5,0.00,,,-99.99,0.0,Linux-Irox,2013-06-30 02:31:00,
2013-06-29 19:36:00,86.7,52.5,29.37,North,-999,-999.0,-999.0,5,0.00,,,-99.99,0.0,Linux-Irox,2013-06-30 02:36:00,
2013-06-29 19:46:00,86.0,51.8,29.38,North,-999,-999.0,-999.0,5,0.00,,,-99.99,0.0,Linux-Irox,2013-06-30 02:46:00,
2013-06-29 19:56:00,85.1,50.9,29.38,North,-999,-999.0,-999.0,5,0.00,,,-99.99,0.0,Linux-Irox,2013-06-30 02:56:00,
2013-06-29 20:01:00,85.1,50.9,29.38,North,-999,-999.0,-999.0,5,0.03,,,-99.99,0.0,Linux-Irox,2013-06-30 03:01:00,
2013-06-29 20:06:00,84.4,50.2,29.38,North,-999,-999.0,-999.0,5,0.00,,,-99.99,0.0,Linux-Irox,2013-06-30 03:06:00,
2013-06-29 20:16:00,83.5,49.3,29.38,North,-999,-999.0,-999.0,5,0.00,,,-99.99,0.0,Linux-Irox,2013-06-30 03:16:00,
2013-06-29 20:17:00,83.5,49.3,29.38,North,-999,-999.0,-999.0,5,0.00,,,-99.99,0.0,Linux-Irox,2013-06-30 03:17:00,
2013-06-29 20:26:00,82.4,48.2,29.38,North,-999,-999.0,-999.0,5,0.00,,,-99.99,0.0,Linux-Irox,2013-06-30 03:26:00,
2013-06-29 20:31:00,82.0,47.8,29.38,North,-999,-999.0,-999.0,5,0.03,,,-99.99,0.0,Linux-Irox,2013-06-30 03:31:00,
2013-06-29 20:36:00,81.7,47.5,29.38,North,-999,-999.0,-999.0,5,0.00,,,-99.99,0.0,Linux-Irox,2013-06-30 03:36:00,
2013-06-29 20:46:00,81.0,46.8,29.38,North,-999,-999.0,-999.0,5,0.00,,,-99.99,0.0,Linux-Irox,2013-06-30 03:46:00,
2013-06-29 20:47:00,81.0,46.8,29.38,North,-999,-999.0,-999.0,5,0.00,,,-99.99,0.0,Linux-Irox,2013-06-30 03:47:00,
2013-06-29 20:56:00,79.9,45.7,29.38,North,-999,-999.0,-999.0,5,0.00,,,-99.99,0.0,Linux-Irox,2013-06-30 03:56:00,
2013-06-29 21:01:00,79.7,45.5,29.39,North,-999,-999.0,-999.0,5,0.00,,,-99.99,0.0,Linux-Irox,2013-06-30 04:01:00,
2013-06-29 21:06:00,79.2,45.0,29.39,North,-999,-999.0,-999.0,5,0.00,,,-99.99,0.0,Linux-Irox,2013-06-30 04:06:00,
2013-06-29 21:16:00,79.0,44.8,29.39,North,-999,-999.0,-999.0,5,0.00,,,-99.99,0.0,Linux-Irox,2013-06-30 04:16:00,
2013-06-29 21:26:00,78.4,44.2,29.39,North,-999,-999.0,-999.0,5,0.00,,,-99.99,0.0,Linux-Irox,2013-06-30 04:26:00,
2013-06-29 21:32:00,78.3,44.1,29.39,North,-999,-999.0,-999.0,5,0.00,,,-99.99,0.0,Linux-Irox,2013-06-30 04:32:00,
2013-06-29 21:36:00,78.1,43.9,29.39,North,-999,-999.0,-999.0,5,0.00,,,-99.99,0.0,Linux-Irox,2013-06-30 04:36:00,
2013-06-29 21:46:00,77.7,43.5,29.40,North,-999,-999.0,-999.0,5,0.00,,,-99.99,0.0,Linux-Irox,2013-06-30 04:46:00,
2013-06-29 21:47:00,77.7,43.5,29.40,North,-999,-999.0,-999.0,5,0.00,,,-99.99,0.0,Linux-Irox,2013-06-30 04:47:00,
2013-06-29 21:56:00,77.0,42.8,29.40,North,-999,-999.0,-999.0,5,0.00,,,-99.99,0.0,Linux-Irox,2013-06-30 04:56:00,
2013-06-29 22:01:00,77.0,42.8,29.41,North,-999,-999.0,-999.0,5,0.03,,,-99.99,0.0,Linux-Irox,2013-06-30 05:01:00,
2013-06-29 22:06:00,76.8,42.6,29.41,North,-999,-999.0,-999.0,5,0.00,,,-99.99,0.0,Linux-Irox,2013-06-30 05:06:00,
2013-06-29 22:16:00,76.5,42.3,29.41,North,-999,-999.0,-999.0,5,0.00,,,-99.99,0.0,Linux-Irox,2013-06-30 05:16:00,
2013-06-29 22:17:00,76.5,42.3,29.41,North,-999,-999.0,-999.0,5,0.00,,,-99.99,0.0,Linux-Irox,2013-06-30 05:17:00,
2013-06-29 22:26:00,75.9,41.7,29.41,North,-999,-999.0,-999.0,5,0.00,,,-99.99,0.0,Linux-Irox,2013-06-30 05:26:00,
2013-06-29 22:32:00,75.9,41.7,29.41,North,-999,-999.0,-999.0,5,0.00,,,-99.99,0.0,Linux-Irox,2013-06-30 05:32:00,
2013-06-29 22:36:00,75.7,41.5,29.41,North,-999,-999.0,-999.0,5,0.00,,,-99.99,0.0,Linux-Irox,2013-06-30 05:36:00,
2013-06-29 22:46:00,75.2,41.0,29.42,North,-999,-999.0,-999.0,5,0.00,,,-99.99,0.0,Linux-Irox,2013-06-30 05:46:00,
2013-06-29 22:47:00,75.2,41.0,29.42,North,-999,-999.0,-999.0,5,0.00,,,-99.99,0.0,Linux-Irox,2013-06-30 05:47:00,
2013-06-29 22:56:00,75.4,41.2,29.42,North,-999,-999.0,-999.0,5,0.00,,,-99.99,0.0,Linux-Irox,2013-06-30 05:56:00,
2013-06-29 23:06:00,75.6,41.4,29.43,North,-999,-999.0,-999.0,5,0.00,,,-99.99,0.0,Linux-Irox,2013-06-30 06:06:00,
2013-06-29 23:16:00,76.1,41.9,29.43,North,-999,-999.0,-999.0,5,0.00,,,-99.99,0.0,Linux-Irox,2013-06-30 06:16:00,
2013-06-29 23:26:00,75.4,41.2,29.43,North,-999,-999.0,-999.0,5,0.00,,,-99.99,0.0,Linux-Irox,2013-06-30 06:26:00,
2013-06-29 23:36:00,75.6,41.4,29.43,North,-999,-999.0,-999.0,5,0.00,,,-99.99,0.0,Linux-Irox,2013-06-30 06:36:00,
2013-06-29 23:46:00,75.4,41.2,29.42,North,-999,-999.0,-999.0,5,0.00,,,-99.99,0.0,Linux-Irox,2013-06-30 06:46:00,
2013-06-29 23:56:00,75.4,41.2,29.42,North,-999,-999.0,-999.0,5,0.00,,,-99.99,0.0,Linux-Irox,2013-06-30 06:56:00,